Retour au catalogue

SL-14 DEB

ActifPO
NORAD 45301·DEBRIS·🇷🇺 Russia

Lancé Aug 15, 1991 depuis Plesetsk Cosmodrome

Loading…

Prochains Passages (prochaines 24 heures)

TLE

FraisSource: Space-Track

Époque: Sep 14, 2026, 03:07 UTC

1 45301U 91056AP  26257.13007172  .00000930  00000-0  10612-2 0  9991
2 45301  82.4965 312.4326 0173207 158.5291 202.3240 13.62761954325053

Suivez SL-14 DEB en temps réel avec AllMySat

Download on the App Store